STARLINK-36903, 68001

Orbit data source: Space-Track

STARLINK-36903, 68001 is a payload satellite owned by SpaceX/Seattle (US) in LEO that was launched on Fri, 27 Feb 2026 UTC via an FALCON 9 launch vehicle from the Air Force Eastern Test Range (AFETR). Payload-class satellites include a variety of spacecraft equipped with specific instruments for various scientific and technological missions. These include communications satellites like Starlink; space stations such as the ISS; scientific satellites like the Hubble; Earth observation satellites from companies like Planet Labs, Umbra, and HawkEye 360; GPS; miniature CubeSats for education and research; and military/defense satellites.

Loading next visibility...
Identifier
68001, 2026-039R
Orbit
LEO
Country
Flag of USUS
Related business
Manufacturer
SpaceX/Seattle
Mission
Operational Commercial Communications
Bus & Motor
STARLINK V2MO, Unknown motor
Mass
575 kg wet, ~530 kg dry
Launch date (UTC)
2026-02-27 (2 months ago)
Launch vehicle
FALCON 9
Launch site
Air Force Eastern Test Range (AFETR)
Object type
Payload
Rocket body
Debris
Shape & HBR
Box + 2 Pan, 17.7 m
Radar Cross Section
36.964 m²

Expand to show TLE details & history
Last TLE update: 13 hours ago

TLE from 13 hours ago
0 STARLINK-36903
1 68001U 26039R   26119.06908239  .00019511  00000-0  71653-3 0  9993
2 68001  43.0027 124.8202 0001175 254.5810 105.4912 15.27585495  9407
Epoch: 2026-04-29T01:39Z
TLE epoch observation values (Epoch: 2026-04-29T01:39:28.718Z)
Latitude
-0.00001°
Longitude
-117.08481°
Altitude
483.024 km
Speed
7.626 km/s
True Right ascension
08h 19m 16s
True Declination
0° 00' 00"
Sunlit
Object was in daylight at epoch
Visualization orbit readout
Latitude
Unknown
Longitude
Unknown
Altitude
Unknown
Speed
Unknown
Apparent Right ascension
Unknown
Apparent Declination
Unknown
Sunlit
N/A
Visualization observer readout
Local Sidereal Time
21:53:58
Azimuth
Unknown
Elevation
Unknown
Doppler factor
Unknown
Orbital elements
Apogee altitude
485.784 km
Perigee altitude
484.171 km
Semi-major axis
6,863.114 km
Eccentricity
0.00012
Inclination
43.0027°
RAAN
124.8202°
Arg. of periapsis
254.581°
True anomaly
105.50417°
Mean anomaly
105.4912°
Eccentric anomaly
105.49769°
Mean motion
3.81734 °/min
Orbital period
94.31 mins
BSTAR
0.00071653
Loading maneuver chart data...
Computing Atmospheric mass density...
Loading historical data...
Loading historical data...
Loading historical data...
Loading historical data...
Loading historical data...
Loading historical data...
Loading historical data...

Documentation

Showing up to 5 results
|